EZY29VG EGAA-EGGD

Flight info

Callsign EZY29VG
Flight time 0h 44m
Altitude 27000
Route LISBO L603 PEPOD Q38 SOSIM/N0359F270 Q38 GIGTO Q38 MALUD L15 RISLA N862 KARNO/N0338F230 N862 WEVBE
Aircraft A20N/M-DE3FGIJ1RSWXY/LAB1

Departure

Time 2026-05-03 23:41
Airport Belfast International Airport (EGAA)

Arrival

Time 2026-05-04 00:25
Airport Bristol Airport (EGGD)
Time Latitude Longitude Altitude Speed Heading
2026-05-03 23:22 54.66143 -6.21382 246 ft 0 kts 246°
2026-05-03 23:31 54.66144 -6.21378 246 ft 2 kts 246°
2026-05-03 23:31 54.66150 -6.21355 246 ft 2 kts 246°
2026-05-03 23:31 54.66156 -6.21333 246 ft 0 kts 246°
2026-05-03 23:32 54.66161 -6.21316 247 ft 2 kts 221°
2026-05-03 23:32 54.66175 -6.21304 247 ft 2 kts 188°
2026-05-03 23:32 54.66188 -6.21306 246 ft 0 kts 159°
2026-05-03 23:32 54.66194 -6.21311 246 ft 1 kts 154°
2026-05-03 23:33 54.66195 -6.21312 246 ft 0 kts 154°
2026-05-03 23:35 54.66193 -6.21310 246 ft 0 kts 154°
2026-05-03 23:35 54.66182 -6.21301 247 ft 2 kts 154°
2026-05-03 23:36 54.66159 -6.21282 248 ft 4 kts 155°
2026-05-03 23:36 54.66125 -6.21255 249 ft 6 kts 155°
2026-05-03 23:36 54.66080 -6.21220 250 ft 7 kts 157°
2026-05-03 23:36 54.66027 -6.21238 251 ft 9 kts 225°
2026-05-03 23:37 54.65992 -6.21359 249 ft 13 kts 245°
2026-05-03 23:37 54.65943 -6.21543 243 ft 18 kts 246°
2026-05-03 23:37 54.65882 -6.21774 234 ft 23 kts 242°
2026-05-03 23:37 54.65837 -6.21938 229 ft 15 kts 245°
2026-05-03 23:38 54.65787 -6.22126 225 ft 18 kts 248°
2026-05-03 23:38 54.65765 -6.22326 218 ft 11 kts 265°
2026-05-03 23:38 54.65754 -6.22489 215 ft 15 kts 263°
2026-05-03 23:38 54.65747 -6.22628 212 ft 0 kts 265°
2026-05-03 23:39 54.65746 -6.22645 212 ft 5 kts 265°
2026-05-03 23:39 54.65741 -6.22744 210 ft 7 kts 265°
2026-05-03 23:40 54.65694 -6.22797 210 ft 10 kts 181°
2026-05-03 23:40 54.65673 -6.22792 210 ft 0 kts 163°
2026-05-03 23:40 54.65658 -6.22785 211 ft 12 kts 163°
2026-05-03 23:40 54.65303 -6.22588 226 ft 91 kts 162°
2026-05-03 23:41 54.64491 -6.22128 273 ft 149 kts 162°
2026-05-03 23:41 54.63520 -6.21591 940 ft 144 kts 162°
2026-05-03 23:41 54.62566 -6.21077 1569 ft 148 kts 162°
2026-05-03 23:41 54.61579 -6.20554 2168 ft 154 kts 162°
2026-05-03 23:42 54.60529 -6.19913 2588 ft 168 kts 148°
2026-05-03 23:42 54.59640 -6.18525 3001 ft 182 kts 129°
2026-05-03 23:42 54.58802 -6.16747 3457 ft 199 kts 127°
2026-05-03 23:42 54.57896 -6.14810 3921 ft 219 kts 128°
2026-05-03 23:43 54.56878 -6.12726 4482 ft 238 kts 129°
2026-05-03 23:43 54.55752 -6.10503 5050 ft 256 kts 130°
2026-05-03 23:43 54.54526 -6.08141 5694 ft 271 kts 131°
2026-05-03 23:43 54.53267 -6.05744 6589 ft 276 kts 131°
2026-05-03 23:44 54.51978 -6.03306 7514 ft 279 kts 131°
2026-05-03 23:44 54.50669 -6.00840 8377 ft 284 kts 131°
2026-05-03 23:44 54.49327 -5.98315 9244 ft 290 kts 131°
2026-05-03 23:44 54.47958 -5.95743 10088 ft 295 kts 131°
2026-05-03 23:45 54.46567 -5.93127 10797 ft 305 kts 131°
2026-05-03 23:45 54.45114 -5.90398 11261 ft 323 kts 131°
2026-05-03 23:45 54.43566 -5.87493 11728 ft 339 kts 131°
2026-05-03 23:45 54.41949 -5.84469 12464 ft 346 kts 131°
2026-05-03 23:46 54.40329 -5.81447 13252 ft 350 kts 131°
2026-05-03 23:46 54.38672 -5.78354 14044 ft 354 kts 131°
2026-05-03 23:46 54.37005 -5.75249 14809 ft 358 kts 131°
2026-05-03 23:46 54.35325 -5.72128 15543 ft 362 kts 131°
2026-05-03 23:47 54.33613 -5.68945 16264 ft 366 kts 131°
2026-05-03 23:47 54.31889 -5.65745 16977 ft 370 kts 131°
2026-05-03 23:47 54.30144 -5.62509 17691 ft 374 kts 131°
2026-05-03 23:47 54.28383 -5.59235 18315 ft 378 kts 130°
2026-05-03 23:48 54.26691 -5.55813 18967 ft 382 kts 127°
2026-05-03 23:48 54.25084 -5.52130 19658 ft 384 kts 124°
2026-05-03 23:48 54.23541 -5.48472 20311 ft 387 kts 124°
2026-05-03 23:48 54.21944 -5.44681 20932 ft 392 kts 124°
2026-05-03 23:49 54.20359 -5.40922 21571 ft 395 kts 123°
2026-05-03 23:49 54.18750 -5.37122 22208 ft 398 kts 123°
2026-05-03 23:49 54.17133 -5.33304 22828 ft 400 kts 124°
2026-05-03 23:49 54.15498 -5.29457 23398 ft 404 kts 124°
2026-05-03 23:50 54.13851 -5.25585 23947 ft 407 kts 124°
2026-05-03 23:50 54.12186 -5.21683 24492 ft 410 kts 123°
2026-05-03 23:50 54.10506 -5.17753 24997 ft 413 kts 123°
2026-05-03 23:50 54.08803 -5.13764 25526 ft 416 kts 123°
2026-05-03 23:51 54.07122 -5.09829 25991 ft 419 kts 123°
2026-05-03 23:51 54.05398 -5.05811 26476 ft 421 kts 122°
2026-05-03 23:51 54.03668 -5.01786 26918 ft 424 kts 122°
2026-05-03 23:51 54.01931 -4.97742 27433 ft 425 kts 122°
2026-05-03 23:52 54.00193 -4.93713 28002 ft 426 kts 122°
2026-05-03 23:52 53.98452 -4.89674 28499 ft 426 kts 122°
2026-05-03 23:52 53.96694 -4.85605 28897 ft 430 kts 122°
2026-05-03 23:52 53.94910 -4.81488 28978 ft 431 kts 121°
2026-05-03 23:53 53.91381 -4.73362 28985 ft 429 kts 122°
2026-05-03 23:53 53.87839 -4.65225 28989 ft 429 kts 122°
2026-05-03 23:54 53.84296 -4.57128 28983 ft 430 kts 122°
2026-05-03 23:54 53.80731 -4.48998 28980 ft 431 kts 122°
2026-05-03 23:55 53.77179 -4.40921 28992 ft 429 kts 122°
2026-05-03 23:55 53.73613 -4.32836 29003 ft 430 kts 123°
2026-05-03 23:56 53.70053 -4.24794 28996 ft 427 kts 124°
2026-05-03 23:56 53.66494 -4.16781 28986 ft 425 kts 124°
2026-05-03 23:57 53.62951 -4.08833 28981 ft 426 kts 124°
2026-05-03 23:57 53.60133 -4.02523 28933 ft 427 kts 124°
2026-05-03 23:58 53.56576 -3.94581 28968 ft 429 kts 124°
2026-05-03 23:58 53.52980 -3.86579 29019 ft 428 kts 125°
2026-05-03 23:59 53.48993 -3.79178 28955 ft 433 kts 146°
2026-05-03 23:59 53.46279 -3.77051 28975 ft 437 kts 159°
2026-05-03 23:59 53.43423 -3.75399 28975 ft 436 kts 160°
2026-05-04 00:00 53.37727 -3.72148 28974 ft 433 kts 159°
2026-05-04 00:00 53.32092 -3.68833 28975 ft 427 kts 158°
2026-05-04 00:01 53.26534 -3.65515 28983 ft 426 kts 159°
2026-05-04 00:01 53.23725 -3.63831 28831 ft 428 kts 159°
2026-05-04 00:01 53.20948 -3.62166 28563 ft 427 kts 159°
2026-05-04 00:02 53.18179 -3.60508 28292 ft 424 kts 159°
2026-05-04 00:02 53.15422 -3.58860 28016 ft 422 kts 159°
2026-05-04 00:02 53.12671 -3.57221 27745 ft 420 kts 159°
2026-05-04 00:02 53.09896 -3.55567 27475 ft 420 kts 159°
2026-05-04 00:03 53.07165 -3.53942 27211 ft 420 kts 159°
2026-05-04 00:03 53.04432 -3.52317 26952 ft 420 kts 159°
2026-05-04 00:03 53.01686 -3.50689 26689 ft 418 kts 159°
2026-05-04 00:03 52.98956 -3.49219 26464 ft 415 kts 162°
2026-05-04 00:04 52.96191 -3.47898 26192 ft 413 kts 163°
2026-05-04 00:04 52.93430 -3.46608 25918 ft 410 kts 163°
2026-05-04 00:04 52.90691 -3.45321 25646 ft 408 kts 163°
2026-05-04 00:04 52.87967 -3.44032 25379 ft 406 kts 163°
2026-05-04 00:05 52.85259 -3.42743 25130 ft 405 kts 163°
2026-05-04 00:05 52.82566 -3.41458 24881 ft 404 kts 163°
2026-05-04 00:05 52.79875 -3.40171 24631 ft 403 kts 163°
2026-05-04 00:05 52.77187 -3.38886 24376 ft 403 kts 163°
2026-05-04 00:06 52.74497 -3.37602 24114 ft 402 kts 162°
2026-05-04 00:06 52.71819 -3.36324 23846 ft 401 kts 162°
2026-05-04 00:06 52.69165 -3.35056 23579 ft 399 kts 162°
2026-05-04 00:06 52.66486 -3.33779 23311 ft 398 kts 163°
2026-05-04 00:07 52.63854 -3.32526 23043 ft 396 kts 163°
2026-05-04 00:07 52.61208 -3.31268 22775 ft 395 kts 163°
2026-05-04 00:07 52.58578 -3.30016 22506 ft 391 kts 164°
2026-05-04 00:07 52.55989 -3.28784 22238 ft 386 kts 164°
2026-05-04 00:08 52.53449 -3.27583 21978 ft 383 kts 164°
2026-05-04 00:08 52.50882 -3.26370 21709 ft 383 kts 164°
2026-05-04 00:08 52.48333 -3.25166 21453 ft 381 kts 164°
2026-05-04 00:08 52.45794 -3.23968 21192 ft 380 kts 164°
2026-05-04 00:09 52.43279 -3.22783 20918 ft 379 kts 164°
2026-05-04 00:09 52.40749 -3.21593 20639 ft 378 kts 164°
2026-05-04 00:09 52.38216 -3.20402 20327 ft 377 kts 164°
2026-05-04 00:09 52.35709 -3.19226 19946 ft 374 kts 164°
2026-05-04 00:10 52.33242 -3.18066 19586 ft 371 kts 165°
2026-05-04 00:10 52.30766 -3.16906 19173 ft 368 kts 164°
2026-05-04 00:10 52.28325 -3.15765 18688 ft 366 kts 165°
2026-05-04 00:10 52.25878 -3.14621 18217 ft 364 kts 165°
2026-05-04 00:11 52.23462 -3.13494 17747 ft 362 kts 164°
2026-05-04 00:11 52.21030 -3.12360 17259 ft 359 kts 164°
2026-05-04 00:11 52.18635 -3.11243 16835 ft 356 kts 164°
2026-05-04 00:11 52.16299 -3.10155 16418 ft 352 kts 164°
2026-05-04 00:12 52.13930 -3.09055 15984 ft 349 kts 164°
2026-05-04 00:12 52.11616 -3.07980 15559 ft 346 kts 164°
2026-05-04 00:12 52.09355 -3.06930 15438 ft 333 kts 164°
2026-05-04 00:12 52.07182 -3.05919 15386 ft 318 kts 165°
2026-05-04 00:13 52.05096 -3.04953 15329 ft 303 kts 165°
2026-05-04 00:13 52.03099 -3.04030 15246 ft 291 kts 165°
2026-05-04 00:13 52.01202 -3.03152 15181 ft 277 kts 165°
2026-05-04 00:13 51.99403 -3.02321 15140 ft 264 kts 165°
2026-05-04 00:14 51.97673 -3.01525 15102 ft 257 kts 165°
2026-05-04 00:14 51.95961 -3.00752 15070 ft 256 kts 167°
2026-05-04 00:14 51.94191 -3.00254 14924 ft 258 kts 174°
2026-05-04 00:14 51.92409 -3.00034 14528 ft 260 kts 176°
2026-05-04 00:15 51.90608 -2.99858 14147 ft 260 kts 176°
2026-05-04 00:15 51.88789 -2.99686 13813 ft 259 kts 176°
2026-05-04 00:15 51.86995 -2.99511 13410 ft 261 kts 177°
2026-05-04 00:15 51.85176 -2.99333 13014 ft 262 kts 177°
2026-05-04 00:16 51.83357 -2.99155 12611 ft 265 kts 177°
2026-05-04 00:16 51.81531 -2.98974 12228 ft 265 kts 177°
2026-05-04 00:16 51.79698 -2.98792 11871 ft 265 kts 177°
2026-05-04 00:16 51.77854 -2.98610 11478 ft 265 kts 176°
2026-05-04 00:17 51.76027 -2.98426 11100 ft 265 kts 177°
2026-05-04 00:17 51.74175 -2.98240 10696 ft 266 kts 177°
2026-05-04 00:17 51.72343 -2.98057 10305 ft 267 kts 177°
2026-05-04 00:17 51.70468 -2.97870 9884 ft 268 kts 177°
2026-05-04 00:18 51.68634 -2.97686 9500 ft 269 kts 177°
2026-05-04 00:18 51.66767 -2.97504 9084 ft 269 kts 176°
2026-05-04 00:18 51.64880 -2.97317 8668 ft 269 kts 176°
2026-05-04 00:18 51.63014 -2.97133 8251 ft 270 kts 176°
2026-05-04 00:19 51.61138 -2.96946 7817 ft 271 kts 176°
2026-05-04 00:19 51.59279 -2.96760 7388 ft 272 kts 176°
2026-05-04 00:19 51.57378 -2.96570 6947 ft 273 kts 176°
2026-05-04 00:19 51.55492 -2.96381 6524 ft 273 kts 176°
2026-05-04 00:20 51.53584 -2.96193 6089 ft 273 kts 176°
2026-05-04 00:20 51.51701 -2.96009 5655 ft 273 kts 176°
2026-05-04 00:20 51.49794 -2.95821 5201 ft 274 kts 176°
2026-05-04 00:20 51.47893 -2.95632 4744 ft 275 kts 175°
2026-05-04 00:21 51.45997 -2.95441 4286 ft 276 kts 176°
2026-05-04 00:21 51.44089 -2.95250 3835 ft 277 kts 176°
2026-05-04 00:21 51.42166 -2.95059 3391 ft 277 kts 176°
2026-05-04 00:21 51.40262 -2.94651 3001 ft 268 kts 159°
2026-05-04 00:22 51.38787 -2.93118 2767 ft 247 kts 129°
2026-05-04 00:22 51.37993 -2.90822 2561 ft 227 kts 107°
2026-05-04 00:22 51.37693 -2.88457 2362 ft 209 kts 94°
2026-05-04 00:22 51.37688 -2.86262 2210 ft 189 kts 86°
2026-05-04 00:23 51.37783 -2.84288 1957 ft 169 kts 84°
2026-05-04 00:23 51.37868 -2.82502 1761 ft 152 kts 85°
2026-05-04 00:23 51.37929 -2.80869 1556 ft 143 kts 85°
2026-05-04 00:23 51.37985 -2.79317 1374 ft 138 kts 86°
2026-05-04 00:24 51.38042 -2.77784 1192 ft 137 kts 86°
2026-05-04 00:24 51.38100 -2.76263 1005 ft 137 kts 86°
2026-05-04 00:24 51.38157 -2.74757 818 ft 137 kts 86°
2026-05-04 00:24 51.38210 -2.73235 624 ft 134 kts 85°
2026-05-04 00:25 51.38263 -2.71935 608 ft 93 kts 84°
2026-05-04 00:25 51.38296 -2.71174 606 ft 43 kts 86°
2026-05-04 00:25 51.38307 -2.70864 605 ft 11 kts 86°
2026-05-04 00:25 51.38338 -2.70770 606 ft 8 kts 35°
2026-05-04 00:26 51.38362 -2.70752 606 ft 3 kts 21°
2026-05-04 00:26 51.38390 -2.70734 606 ft 5 kts 21°
2026-05-04 00:26 51.38431 -2.70714 605 ft 7 kts 352°
2026-05-04 00:26 51.38467 -2.70784 603 ft 11 kts 276°
2026-05-04 00:27 51.38464 -2.70920 602 ft 12 kts 266°
2026-05-04 00:27 51.38488 -2.71011 602 ft 6 kts 353°
2026-05-04 00:27 51.38515 -2.71013 601 ft 5 kts 355°
2026-05-04 00:27 51.38557 -2.71019 599 ft 0 kts 356°